Regional Weather Roundup
Issued by NWS Green Bay, WI

Home | Current Version | Previous Version | Graphics & Text | Print | Product List | Glossary Off
Versions: 1 2 3 4 5 6 7 8 9 10 11 12 13 14 15 16 17 18 19 20 21 22 23 24 25 26 27 28 29 30 31 32 33 34 35 36 37 38 39 40 41 42 43 44 45 46 47 48 49 50

000
ASUS43 KGRB 291811
RWRGRB

NORTH-CENTRAL AND NORTHEAST WISCONSIN REGIONAL WEATHER ROUNDUP
NATIONAL WEATHER SERVICE GREEN BAY WI
100 PM CDT SUN MAY 29 2016

WIZ005-009-010>012-018-019-291900-
NORTH CENTRAL WISCONSIN

CITY           SKY/WX    TMP DP  RH WIND       PRES   REMARKS
IRONWOOD       CLOUDY    64  61  88 W9        29.80F
MANITOWISH WTR NOT AVBL
ARBOR VITAE    CLOUDY    67  60  76 W7G16     29.86F
EAGLE RIVER      N/A     66  55  66 W13G21    29.86R
LAND O LAKES   PTSUNNY   66  58  75 W13       29.85S
RHINELANDER    CLOUDY    68  56  65 W13       29.88R
PHILLIPS       CLOUDY    65  61  85 SW8       29.87F
ANTIGO         CLOUDY    67  60  77 W13G21    29.89R
TOMAHAWK       CLOUDY    67  57  71 SW3       29.89S
MERRILL        NOT AVBL
$$

WIZ013-073-291900-
NORTHEAST WISCONSIN

CITY           SKY/WX    TMP DP  RH WIND       PRES   REMARKS
IRON MOUNTAIN  PTSUNNY   66  62  87 SW6       29.80F
MARINETTE      LGT RAIN  68  62  81 SW9G17    29.86R
OCONTO         CLOUDY    67  67 100 W10       29.86S
$$

WIZ017-030-035>037-045-291900-
CENTRAL WISCONSIN

CITY           SKY/WX    TMP DP  RH WIND       PRES   REMARKS
MEDFORD        CLOUDY    65  61  87 W14G21    29.90S
WAUSAU         CLOUDY    72  58  61 W18G31    29.88S
MOSINEE        PTSUNNY   70  61  73 SW15G21   29.91S
MARSHFIELD     LGT RAIN  68  61  78 W13       29.92R
WISC RAPIDS    LGT RAIN  69  56  62 W13G23    29.93S
STEVENS POINT  CLOUDY    67  57  71 W9        29.91F
WAUPACA        CLOUDY    72  64  76 W13G18    29.91S
SHAWANO        CLOUDY    71  62  72 W9G17     29.88S
CLINTONVILLE   CLOUDY    70  59  68 W13G18    29.89S
WAUTOMA        CLOUDY    74  59  59 W20G28    29.92F
$$

WIZ038-039-048-051-291900-
FOX VALLEY

CITY           SKY/WX    TMP DP  RH WIND       PRES   REMARKS
NWS GREEN BAY  CLOUDY    71  62  73 W15G23    29.89R
APPLETON       RAIN      70  59  68 W18       29.90R
OSHKOSH        PTSUNNY   72  62  71 SW9G20    29.91S
FOND DU LAC    MOSUNNY   73  64  73 VRB7      29.92F
$$

WIZ022-050-052-291900-
EAST CENTRAL WISCONSIN

CITY           SKY/WX    TMP DP  RH WIND       PRES   REMARKS
EPHRAIM        CLOUDY    67  63  85 SW5       29.85S
STURGEON BAY   NOT AVBL
MANITOWOC      PTSUNNY   70  64  81 W13G24    29.91S
SHEBOYGAN      MOSUNNY   74  61  63 SW16      29.91F
$$

LMZ563-521-522-541>543-291900-
LAKESHORE

STATION/POSITION TIME  TEMP    WIND        PRES    VSBY  WAVE
                       AIR SEA DIR/SP/G                  HT/PER
                 (UTC) (F)     (DEG/KT/KT) (MB)    (MI)  (FT/S)
SHEBOYGAN LKSHOR 1800   71     230/ 19/ 22 1013.0F
KEWAUNEE LKSHORE 1700   64     220/ 15/ 21 1011.3R
ALGOMA MARINA    1702          230/ 14/ 21   N/A
NORTHPORT PIER   1700   61     160/  7/ 12 1011.2R
N MID LAKE BUOY  1750   50 47  200/ 12/ 14 1011.2S         2/ 5
SISTER BAY LKSHO 1705   66     160/ 10/ 15   N/A
CHAMBERS ISLAND  1700   70     170/ 10/ 16 1010.5S
MENOMINEE LKSHOR 1700   67     190/ 13/ 17 1009.5R
$$




USA.gov is the U.S. government's official web portal to all federal, state and local government web resources and services.